User: anonymous   Login
Location: Unspecified
(0.0000°N, 0.0000°E)
Time: 22:29:36
(UTC+00:00)
Language:

OBJECT AA - Orbit

View from above orbital plane
View from above orbital plane
View from above satellite
View from above satellite

Ground track
Ground track

The orbit data is extracted from the following two-line orbital elements,

1 43135U 18004AA  23184.28715437  .05286662  24347-5  12123-2 0  9995
2 43135  97.3068 273.8176 0014916 271.2852  88.6734 16.29701768305420
Epoch (UTC): 03 July 2023 06:53:30
Eccentricity: 0.0014916
inclination: 97.3068°
perigee height: 183 km
apogee height: 203 km
right ascension of ascending node: 273.8176°
argument of perigee: 271.2852°
revolutions per day: 16.29701768
mean anomaly at epoch: 88.6734°
orbit number at epoch: 30542

The dashed part of the orbit path shows where the satellite is in the earth's shadow,  

DLR